Home   Weather   San Juan   Past weeks

Flag for Puerto Rico Past Weather in San Juan, Puerto Rico — Yesterday and Last 2 Weeks

Now
81 °F

Passing clouds.


Feels Like: 86 °F
Forecast: 78 / 84 °F
Wind: 5 mph from Southeast

Location: Luis Munoz Marin

Current Time: Dec 10, 2016 at 10:17:20 pm

Latest Report: Dec 10, 2016 at 9:56 pm


Visibility: 10 mi

Pressure: 30.09 "Hg

Humidity: 79%

Dew Point: 74 °F

Location of San JuanLocation

Past Weather in San Juan — Graph

°F

San Juan Temperature Yesterday

Maximum temperature yesterday: 86 °F (at 1:56 pm)
Minimum temperature yesterday: 77 °F (at 4:56 am)
Average temperature yesterday: 81 °F

High & Low Weather Summary for the Past Weeks

 TemperatureHumidityPressure
High88 °F (Dec 1, 11:56 am)100% (Nov 28, 7:56 am)30.10 "Hg (Nov 28, 7:56 am)
Low71 °F (Nov 28, 5:56 am)57% (Nov 27, 10:56 am)29.78 "Hg (Nov 28, 3:56 am)
Average81 °F78%29.95 "Hg
* Reported Nov 25 8:56 pm — Dec 10 8:56 pm, San Juan, Weather by CustomWeather, © 2016

Note: Actual official high and low records may vary slightly from our data, if they occured in-between our weather recording intervals... More about our weather records

Advertising

San Juan Weather History for the Previous 24 Hours

Scroll right to see more
 ConditionsComfort  
Time TempWeatherWind HumidityBarometerVisibility
8:56 pm
Sat, Dec 10
81 °FPassing clouds.7 mph79%30.07 "Hg10 mi
7:56 pm82 °FPassing clouds.5 mph74%30.06 "Hg10 mi
6:56 pm82 °FPassing clouds.6 mph77%30.05 "Hg10 mi
5:56 pm82 °FScattered clouds.8 mph79%30.03 "Hg10 mi
4:56 pm84 °FLight rain. Scattered clouds.9 mph74%30.02 "Hg10 mi
3:56 pm84 °FScattered clouds.14 mph72%30.01 "Hg10 mi
2:56 pm85 °FScattered clouds.16 mph70%30.01 "Hg10 mi
1:56 pm86 °FScattered clouds.14 mph67%30.02 "Hg10 mi
12:56 pm86 °FScattered clouds.15 mph70%30.05 "Hg10 mi
11:56 am86 °FBroken clouds.14 mph67%30.08 "Hg10 mi
10:56 am84 °FBroken clouds.10 mph77%30.09 "Hg10 mi
9:56 am84 °FBroken clouds.10 mph80%30.10 "Hg10 mi
8:56 am80 °FBroken clouds.5 mph85%30.10 "Hg10 mi
7:56 am79 °FBroken clouds.3 mph84%30.07 "Hg10 mi
6:56 am78 °FPartly cloudy.3 mph87%30.05 "Hg10 mi
5:56 am78 °FPassing clouds.No wind87%30.03 "Hg10 mi
4:56 am78 °FPassing clouds.3 mph87%30.02 "Hg10 mi
3:56 am78 °FPassing clouds.No wind90%30.01 "Hg10 mi
2:56 am79 °FPartly cloudy.3 mph88%30.01 "Hg10 mi
1:56 am79 °FLight rain. Passing clouds.No wind88%30.03 "Hg10 mi
12:56 am79 °FLight rain. Partly cloudy.No wind90%30.04 "Hg10 mi
11:56 pm
Fri, Dec 9
80 °FPassing clouds.No wind87%30.05 "Hg10 mi
10:56 pm80 °FRain. Partly cloudy.3 mph87%30.06 "Hg9 mi
Weather by CustomWeather, © 2016

See weather overviewHow to use our weather pages